[[{"header":{"parameterUnit":"m.s-1","parameterCategory":2,"la1":30.2991,"la2":30.254,"lo1":-89.0895,"lo2":-89.0444,"dy":0.0017,"dx":0.0017,"nx":28,"ny":28,"refTime":"2025-11-08T03:00:00:Z","depth":"0","parameterNumber":2,"parameterNumberName":"U-component_of_CURRENTS"},"data":[0,0,0,0,0,0,0,0,0,0,0,0,0,0,0,0,0,0,0,0,0,0,0,0,0,0,0,0,0,0,0,0,0,0,0,0,0,0,0,0,0,0,0,0,0,0,0,0,0,0,0,0,0,0,0,0,0,0,0.2596,0.2597,0,0.2601,0.2601,0.2601,0.2576,0.2576,0.2575,0.2575,0.2546,0.2546,0.2545,0,0,0,0,0,0,0,0,0,0,0,0,0,0.2581,0.2581,0.2596,0.2597,0.2597,0.2601,0.2601,0.2601,0.2576,0.2576,0.2575,0.2575,0.2546,0.2546,0.2545,0,0,0,0,0,0,0,0,0,0,0,0,0,0.2585,0.2581,0.2596,0.2587,0.2586,0.2601,0.2601,0.2601,0.2577,0.2576,0.2575,0.2574,0.2546,0.2546,0.2545,0.2558,0,0,0.2544,0.2544,0,0,0,0,0,0,0,0,0.2585,0.2585,0.2588,0.2587,0.2587,0.2589,0.2585,0.2585,0.2577,0.2578,0.2575,0.2574,0.2559,0.2558,0.2558,0.2556,0.2555,0.2544,0.2544,0.2543,0.2543,0,0,0,0,0,0,0,0.2584,0.2585,0.2596,0.2588,0.2588,0.2587,0.2587,0.2585,0.2571,0.2578,0.2577,0.2581,0.2558,0.2558,0.2557,0.2555,0.2544,0.2543,0.2543,0.2543,0.2585,0.2586,0,0,0,0,0,0,0.2588,0.2585,0.2596,0.2596,0.2586,0.2588,0.2588,0.2587,0.2571,0.2569,0.2581,0.258,0.2559,0.2557,0.2556,0.2585,0.2543,0.2543,0.2543,0.2583,0.2585,0.2587,0,0,0,0,0,0,0.2588,0.2589,0.2596,0.2593,0.2594,0.259,0.259,0.2588,0.2591,0.2575,0.2571,0.2586,0.2559,0.2556,0.2563,0.2582,0.2543,0.2542,0.2582,0.2584,0.2586,0.2633,0,0,0,0,0,0,0.2587,0.2589,0.2592,0.2593,0.2594,0.2608,0.2591,0.2589,0.2595,0.2593,0.2578,0.2574,0.2558,0.2564,0.2563,0.2581,0.2542,0.258,0.2583,0.2585,0.2629,0.2636,0.2642,0,0,0,0,0,0.2587,0.2592,0.2592,0.2594,0.2598,0.2608,0.2609,0.2602,0.2597,0.2601,0.2596,0.2575,0.258,0.2565,0.2563,0.2582,0.2579,0.2582,0.2585,0.2627,0.2635,0.2642,0,0,0,0,0,0,0.2584,0.259,0.2591,0.2597,0.2605,0.2605,0.261,0.261,0.261,0.2608,0.259,0.2586,0.2602,0.2589,0.2574,0.2604,0.2577,0.258,0.261,0.2617,0.2623,0.263,0.2542,0,0,0,0,0,0.2588,0.2593,0.2601,0.2607,0.2612,0.2615,0.2619,0.2619,0.2619,0.2618,0.2609,0.2606,0.2614,0.2613,0.2613,0.2627,0.2631,0.264,0.2647,0.2652,0.2658,0.2695,0.2705,0.2597,0.2597,0.2597,0,0,0.2588,0.2594,0.2595,0.2607,0.2612,0.2627,0.2615,0.2626,0.264,0.2616,0.2627,0.2627,0.2624,0.2641,0.2647,0.2631,0.2684,0.2656,0.266,0.2663,0.2699,0.2709,0.2719,0.2599,0.2599,0.2598,0,0,0.2593,0.2597,0.2605,0.2617,0.2632,0.2639,0.2646,0.2653,0.2655,0.2672,0.2664,0.2679,0.2678,0.2685,0.2689,0.2733,0.2719,0.2732,0.2764,0.28,0.2809,0.2817,0.2832,0.2841,0.2732,0.2732,0.2732,0,0.2596,0.2605,0.261,0.2626,0.2639,0.2647,0.2665,0.2675,0.2683,0.2698,0.2681,0.2716,0.2703,0.2745,0.2752,0.2747,0.2757,0.2733,0.2808,0.2816,0.2823,0.2837,0.2846,0.2734,0.2734,0.2734,0.2734,0,0.2608,0.262,0.2628,0.2651,0.2667,0.2683,0.2703,0.2719,0.2727,0.2742,0.2781,0.2778,0.2799,0.28,0.2783,0.2835,0.2822,0.2813,0.2787,0.2837,0.2848,0.2857,0.2738,0.2737,0.2736,0.2736,0,0,0.2601,0.2631,0.2633,0.2646,0.2682,0.2693,0.273,0.2766,0.2797,0.2813,0.2855,0.2871,0.2877,0.2882,0.2875,0.2898,0.2947,0.2874,0.2875,0.2886,0.3017,0.3007,0.3015,0.2953,0.2955,0.2956,0.3002,0,0.2609,0.2635,0.2654,0.2683,0.2698,0.2727,0.2762,0.2799,0.2831,0.2873,0.2898,0.2933,0.2908,0.2921,0.2945,0.2951,0.2973,0.2934,0.297,0.2971,0.2953,0.3026,0.2989,0.3027,0.301,0.3012,0.3013,0,0.2614,0.2631,0.2657,0.2698,0.2708,0.2732,0.2792,0.2827,0.2898,0.293,0.2983,0.2999,0.3044,0.3009,0.3062,0.304,0.3031,0.3031,0.3033,0.3013,0.2978,0.2976,0.3043,0.3037,0.3026,0.3025,0.3024,0,0.2593,0.2632,0.2649,0.2662,0.2714,0.2735,0.277,0.2842,0.2888,0.2972,0.3015,0.3075,0.3109,0.3125,0.3121,0.3096,0.3172,0.3139,0.3124,0.3122,0.3093,0.3085,0.3156,0.3177,0.3177,0.3176,0.3176,0,0.2588,0.2601,0.2637,0.2645,0.2678,0.2722,0.2777,0.2829,0.2919,0.2981,0.304,0.3102,0.314,0.318,0.3161,0.3183,0.3211,0.3149,0.3147,0.3107,0.3101,0.3093,0.3084,0.3178,0.3178,0.3177,0.3177,0,0.2558,0.2581,0.2601,0.2649,0.2665,0.2689,0.2773,0.2818,0.2912,0.2996,0.3026,0.3141,0.3204,0.3229,0.3265,0.3241,0.3192,0.3244,0.3186,0.3177,0.3144,0.3138,0.3027,0.2924,0.324,0.3241,0.3241,0,0.2542,0.2548,0.2591,0.26,0.2619,0.2665,0.2699,0.2802,0.2858,0.3013,0.3048,0.3155,0.323,0.3306,0.3297,0.3299,0.3199,0.324,0.3186,0.3162,0.3153,0.2989,0.2897,0.316,0.316,0.316,0.3159,0,0.2513,0.2527,0.2541,0.2565,0.259,0.2626,0.2684,0.2728,0.2849,0.2933,0.3047,0.313,0.3248,0.3271,0.3299,0.3284,0.314,0.3231,0.3232,0.313,0.2929,0.2823,0.3096,0.3156,0.3156,0.3156,0.3157,0.3157,0.2486,0.2487,0.2504,0.252,0.2544,0.2563,0.257,0.2648,0.2727,0.2833,0.2967,0.3082,0.3228,0.3289,0.3242,0.3214,0.3113,0.3156,0.3159,0.2999,0.2876,0.3135,0.3175,0.3175,0.3176,0.3176,0.3176,0,0.2441,0.2444,0.2458,0.2461,0.2451,0.2493,0.2536,0.2536,0.258,0.2751,0.2848,0.3041,0.3129,0.3208,0.3274,0.3194,0.2982,0.3118,0.291,0.2825,0.3113,0.3091,0.3083,0.3083,0.3083,0.3083,0.3083,0.3083,0.2417,0.24,0.2404,0.2362,0.2361,0.2324,0.2326,0.235,0.2449,0.2576,0.271,0.2848,0.3169,0.3372,0.3367,0.3252,0.3003,0.2876,0.28,0.3094,0.3097,0.31,0.3079,0.3069,0.3069,0.2393,0.2389,0.2386]},{"header":{"parameterUnit":"m.s-1","parameterCategory":2,"la1":30.2991,"la2":30.254,"lo1":-89.0895,"lo2":-89.0444,"dy":0.0017,"dx":0.0017,"nx":28,"ny":28,"refTime":"2025-11-08T03:00:00:Z","depth":"0","parameterNumber":3,"parameterNumberName":"V-component_of_CURRENTS"},"data":[0,0,0,0,0,0,0,0,0,0,0,0,0,0,0,0,0,0,0,0,0,0,0,0,0,0,0,0,0,0,0,0,0,0,0,0,0,0,0,0,0,0,0,0,0,0,0,0,0,0,0,0,0,0,0,0,0,0,0.0005,0.0005,0,-0.0028,-0.0028,-0.0028,-0.0055,-0.0055,-0.0055,-0.0055,-0.0098,-0.0099,-0.01,0,0,0,0,0,0,0,0,0,0,0,0,0,-0.0006,-0.0005,0.0005,0.0005,0.0004,-0.0027,-0.0028,-0.0029,-0.0055,-0.0055,-0.0055,-0.0055,-0.0098,-0.0099,-0.01,0,0,0,0,0,0,0,0,0,0,0,0,0,-0.0017,-0.0005,0.0005,-0.0012,-0.0014,-0.0027,-0.0028,-0.0029,-0.0055,-0.0055,-0.0055,-0.0056,-0.0098,-0.0099,-0.0101,-0.0104,0,0,-0.0105,-0.0106,0,0,0,0,0,0,0,0,-0.0016,-0.0016,-0.0009,-0.0011,-0.0013,-0.0037,-0.0048,-0.0054,-0.0055,-0.004,-0.0055,-0.0056,-0.0078,-0.0081,-0.0088,-0.0106,-0.0108,-0.0105,-0.0106,-0.0107,-0.0107,0,0,0,0,0,0,0,-0.0015,-0.0015,-0.0009,-0.0009,-0.0012,-0.0035,-0.0037,-0.0049,-0.0058,-0.0041,-0.0043,-0.0045,-0.0079,-0.0086,-0.0089,-0.0108,-0.0105,-0.0106,-0.0107,-0.0108,-0.0134,-0.0133,0,0,0,0,0,0,-0.0006,-0.0014,-0.0008,-0.001,-0.0014,-0.0034,-0.0036,-0.0029,-0.0058,-0.0062,-0.0045,-0.0046,-0.0083,-0.0087,-0.009,-0.0083,-0.0107,-0.0108,-0.0109,-0.0134,-0.0134,-0.0133,0,0,0,0,0,0,-0.0006,-0.0005,-0.0007,-0.0013,-0.0015,-0.0033,-0.0026,-0.003,-0.0034,-0.006,-0.0065,-0.0045,-0.0084,-0.0088,-0.0097,-0.0086,-0.0109,-0.011,-0.0134,-0.0134,-0.0133,-0.0078,0,0,0,0,0,0,-0.0006,-0.0005,0.0001,-0.0012,-0.0014,-0.0004,-0.0026,-0.003,-0.0035,-0.0037,-0.0061,-0.0066,-0.0084,-0.0094,-0.0098,-0.0088,-0.0111,-0.0134,-0.0134,-0.0134,-0.008,-0.0075,-0.0072,0,0,0,0,0,-0.0006,0.0009,0.0002,0.0003,-0.0004,-0.0004,-0.0007,-0.0023,-0.0034,-0.0029,-0.0049,-0.0065,-0.0095,-0.0095,-0.01,-0.009,-0.0134,-0.0134,-0.0134,-0.0081,-0.0076,-0.0072,0,0,0,0,0,0,0.0007,0.0008,-0.0,0.0014,0.0008,-0.0008,-0.0006,-0.0017,-0.0029,-0.0034,-0.006,-0.0065,-0.007,-0.0089,-0.0088,-0.0098,-0.0118,-0.0119,-0.0077,-0.0073,-0.0069,-0.0052,-0.0112,0,0,0,0,0,0.0013,0.0025,0.0018,0.0028,0.0028,0.0011,0.0007,-0.0002,-0.0014,-0.002,-0.0038,-0.0059,-0.0073,-0.0079,-0.0095,-0.0097,-0.0122,-0.0096,-0.0092,-0.0088,-0.0079,-0.0109,-0.0107,-0.0132,-0.0132,-0.0132,0,0,0.002,0.0022,0.0027,0.0031,0.0024,0.0037,0.0008,0.0009,0.0017,-0.0023,-0.0019,-0.0045,-0.0071,-0.0074,-0.0078,-0.0087,-0.0096,-0.0088,-0.0084,-0.0076,-0.0108,-0.0106,-0.0103,-0.0132,-0.0132,-0.0132,0,0,0.0046,0.0043,0.0063,0.0064,0.0061,0.0053,0.0058,0.0046,0.0038,0.0036,0.0008,-0.0009,-0.0029,-0.0045,-0.0056,-0.004,-0.0075,-0.0049,-0.0012,-0.0041,-0.0039,-0.0038,-0.0069,-0.0071,-0.0045,-0.0045,-0.0045,0,0.0053,0.0081,0.0067,0.0088,0.0096,0.0067,0.0093,0.0081,0.0067,0.0068,0.0045,0.0012,-0.0014,-0.0015,-0.0013,-0.003,-0.0054,-0.0025,-0.0035,-0.0034,-0.0034,-0.0066,-0.0069,-0.0042,-0.0043,-0.0043,-0.0043,0,0.0098,0.0117,0.013,0.015,0.0155,0.0171,0.0159,0.0154,0.0136,0.0128,0.0117,0.0073,0.0058,0.0041,0.0019,0.0014,-0.0008,-0.0027,-0.0044,-0.0028,-0.0064,-0.0067,-0.0038,-0.0039,-0.004,-0.0041,0,0,0.0123,0.0157,0.0161,0.0186,0.0191,0.0205,0.0212,0.0221,0.0237,0.0199,0.0212,0.017,0.0143,0.0128,0.009,0.006,0.0036,0.0023,0.002,-0.0002,-0.0032,-0.0052,-0.0059,0.0013,0.0013,0.0013,-0.006,0,0.0164,0.0223,0.0225,0.0277,0.0308,0.0288,0.0304,0.0303,0.0292,0.0294,0.0237,0.0235,0.0178,0.017,0.013,0.0063,0.0029,0.0057,-0.005,-0.0053,-0.0068,-0.0063,-0.0058,-0.0123,-0.0064,-0.0065,-0.0065,0,0.0212,0.0247,0.0308,0.0353,0.0365,0.0386,0.0412,0.0426,0.0413,0.0404,0.0378,0.0335,0.0289,0.0233,0.0124,0.0144,0.0065,0.0002,-0.0002,-0.004,-0.008,-0.013,-0.0132,-0.0311,-0.0071,-0.0071,-0.007,0,0.0251,0.0307,0.0362,0.0377,0.0417,0.0434,0.0453,0.046,0.0493,0.0477,0.0489,0.042,0.0392,0.028,0.0145,0.0136,0.0017,-0.0012,-0.0107,-0.011,-0.0136,-0.014,-0.0315,-0.0089,-0.0088,-0.0088,-0.0088,0,0.0301,0.0344,0.0385,0.0416,0.0484,0.0488,0.0557,0.0559,0.0583,0.0636,0.0554,0.0569,0.0402,0.0311,0.0175,0.0025,0.0037,-0.0097,-0.0127,-0.0117,-0.0119,-0.0299,-0.0415,-0.0091,-0.009,-0.009,-0.0089,0,0.0339,0.0363,0.0434,0.0486,0.0507,0.0557,0.0635,0.0688,0.069,0.075,0.0748,0.0684,0.0565,0.0385,0.0207,0.0078,-0.0185,-0.0131,-0.011,-0.0136,-0.0386,-0.0498,-0.0703,-0.0799,-0.0243,-0.0244,-0.0244,0,0.0366,0.0406,0.049,0.054,0.0567,0.0643,0.0703,0.074,0.081,0.0829,0.0869,0.0769,0.0732,0.0454,0.0194,-0.0053,-0.0226,-0.0208,-0.0225,-0.0399,-0.0547,-0.0616,-0.0687,-0.0244,-0.0245,-0.0246,-0.0246,0,0.0419,0.0446,0.0506,0.0612,0.0686,0.0783,0.0871,0.0943,0.0991,0.1042,0.1089,0.1057,0.0777,0.054,0.0186,0.0004,-0.0352,-0.0227,-0.0415,-0.057,-0.0648,-0.0754,-0.0204,-0.0251,-0.0251,-0.025,-0.025,-0.025,0.0458,0.0512,0.0592,0.0695,0.0787,0.091,0.1008,0.111,0.1232,0.1328,0.1274,0.1279,0.0884,0.0408,0.0115,-0.04,-0.0411,-0.0534,-0.0657,-0.071,-0.0805,-0.0265,-0.034,-0.034,-0.034,-0.034,-0.034,0,0.051,0.0572,0.067,0.0797,0.0912,0.0951,0.1116,0.1231,0.1392,0.1484,0.1532,0.1348,0.0873,0.0366,-0.0333,-0.0728,-0.088,-0.0959,-0.1067,-0.112,-0.0642,-0.0643,-0.0777,-0.0777,-0.0777,-0.0777,-0.0776,-0.0776,0.0538,0.0637,0.069,0.0879,0.0974,0.1145,0.125,0.1421,0.1545,0.1679,0.1699,0.1659,0.1254,-0.0022,-0.09,-0.1129,-0.1444,-0.1521,-0.1673,-0.1359,-0.1329,-0.1299,-0.1326,-0.1602,-0.1603,-0.2078,-0.2083,-0.2087]}],[{"header":{"parameterUnit":"m.s-1","parameterCategory":2,"la1":30.2991,"la2":30.254,"lo1":-89.0895,"lo2":-89.0444,"dy":0.0017,"dx":0.0017,"nx":28,"ny":28,"refTime":"2025-11-08T03:00:00:Z","depth":"2","parameterNumber":2,"parameterNumberName":"U-component_of_CURRENTS"},"data":[0,0,0,0,0,0,0,0,0,0,0,0,0,0,0,0,0,0,0,0,0,0,0,0,0,0,0,0,0,0,0,0,0,0,0,0,0,0,0,0,0,0,0,0,0,0,0,0,0,0,0,0,0,0,0,0,0,0,0.2516,0.2516,0,0.2521,0.252,0.252,0.25,0.2499,0.2499,0.2499,0.2473,0.2473,0.2473,0,0,0,0,0,0,0,0,0,0,0,0,0,0.2501,0.2502,0.2516,0.2516,0.2516,0.2521,0.252,0.252,0.25,0.2499,0.2499,0.2499,0.2473,0.2473,0.2473,0,0,0,0,0,0,0,0,0,0,0,0,0,0.2505,0.2502,0.2516,0.2508,0.2508,0.2521,0.252,0.252,0.25,0.2499,0.2499,0.2498,0.2473,0.2473,0.2473,0.2482,0,0,0.2471,0.2471,0,0,0,0,0,0,0,0,0.2505,0.2505,0.2509,0.2509,0.2508,0.2511,0.2506,0.2507,0.25,0.2501,0.2499,0.2498,0.2485,0.2483,0.2483,0.2481,0.248,0.2471,0.2471,0.2471,0.2471,0,0,0,0,0,0,0,0.2505,0.2505,0.2515,0.2509,0.2509,0.2509,0.2508,0.2506,0.2494,0.2501,0.25,0.2504,0.2484,0.2484,0.2482,0.2479,0.2471,0.2471,0.247,0.247,0.2511,0.2512,0,0,0,0,0,0,0.2508,0.2505,0.2515,0.2516,0.2507,0.251,0.2509,0.2509,0.2495,0.2493,0.2504,0.2503,0.2485,0.2483,0.2481,0.2512,0.2471,0.247,0.247,0.251,0.2511,0.2513,0,0,0,0,0,0,0.2508,0.2509,0.2515,0.2512,0.2513,0.2511,0.2511,0.2509,0.2514,0.2498,0.2495,0.2511,0.2484,0.2482,0.249,0.251,0.247,0.247,0.2508,0.251,0.2512,0.2559,0,0,0,0,0,0,0.2507,0.2509,0.2513,0.2513,0.2514,0.2527,0.2511,0.251,0.2518,0.2517,0.2503,0.25,0.2483,0.2491,0.2489,0.2508,0.2469,0.2506,0.2509,0.2511,0.2556,0.2563,0.2569,0,0,0,0,0,0.2507,0.2512,0.2513,0.2515,0.2519,0.2527,0.2528,0.2523,0.2519,0.2524,0.252,0.25,0.2506,0.2491,0.2489,0.2509,0.2505,0.2508,0.2511,0.2553,0.2562,0.2568,0,0,0,0,0,0,0.2506,0.2511,0.2512,0.2518,0.2526,0.2525,0.2531,0.2531,0.2532,0.2532,0.2514,0.2511,0.2528,0.2515,0.25,0.253,0.2504,0.2507,0.2537,0.2544,0.255,0.2556,0.2469,0,0,0,0,0,0.251,0.2514,0.2522,0.2527,0.2533,0.2536,0.2541,0.2541,0.2542,0.2542,0.2533,0.2531,0.2539,0.2538,0.2539,0.2553,0.2556,0.2566,0.2572,0.2578,0.2583,0.2619,0.2629,0.2523,0.2523,0.2522,0,0,0.251,0.2515,0.2517,0.2528,0.2533,0.2548,0.2536,0.2549,0.2562,0.2539,0.2552,0.2552,0.2549,0.2566,0.2572,0.2557,0.2609,0.2582,0.2586,0.2589,0.2623,0.2633,0.2642,0.2525,0.2524,0.2524,0,0,0.2515,0.252,0.2528,0.2539,0.2554,0.256,0.2568,0.2575,0.2579,0.2596,0.2588,0.2604,0.2604,0.261,0.2613,0.2656,0.2643,0.2657,0.2689,0.2723,0.2732,0.274,0.2755,0.2763,0.2657,0.2657,0.2657,0,0.2519,0.2527,0.2532,0.2547,0.256,0.2569,0.2586,0.2597,0.2605,0.262,0.2605,0.264,0.2628,0.2668,0.2676,0.267,0.2681,0.2658,0.2731,0.2739,0.2746,0.2759,0.2769,0.266,0.2659,0.2659,0.2659,0,0.253,0.2542,0.255,0.2572,0.2588,0.2603,0.2623,0.2639,0.2649,0.2664,0.2703,0.27,0.2721,0.2723,0.2707,0.2758,0.2746,0.2737,0.2711,0.276,0.277,0.2779,0.2663,0.2662,0.2662,0.2661,0,0,0.2524,0.2552,0.2555,0.2567,0.2602,0.2612,0.2649,0.2684,0.2716,0.2733,0.2774,0.279,0.2798,0.2803,0.2797,0.2819,0.2868,0.2797,0.2798,0.2809,0.2937,0.2924,0.2931,0.2874,0.2876,0.2878,0.2922,0,0.2533,0.2556,0.2575,0.2603,0.2617,0.2646,0.2679,0.2716,0.2749,0.279,0.2815,0.2851,0.2828,0.2843,0.2866,0.2872,0.2894,0.2856,0.289,0.2891,0.2871,0.2942,0.2676,0.2693,0.293,0.2932,0.2933,0,0.2537,0.2553,0.2578,0.2617,0.2627,0.2651,0.271,0.2744,0.2814,0.2846,0.29,0.2916,0.2961,0.2928,0.298,0.2959,0.2951,0.295,0.2952,0.293,0.2895,0.2684,0.2699,0.2947,0.2946,0.2944,0.2944,0,0.2517,0.2554,0.2571,0.2584,0.2633,0.2655,0.2689,0.276,0.2805,0.2888,0.2932,0.2991,0.3025,0.3041,0.3038,0.3015,0.3088,0.3055,0.3038,0.3036,0.2811,0.2786,0.3092,0.3092,0.3092,0.3092,0.3091,0,0.2513,0.2525,0.2561,0.2568,0.2601,0.2644,0.2698,0.275,0.2838,0.2898,0.2958,0.3017,0.3056,0.3095,0.3077,0.3097,0.3125,0.3063,0.306,0.282,0.2798,0.3015,0.3005,0.3093,0.3093,0.3093,0.3092,0,0.2484,0.2506,0.2526,0.2573,0.2589,0.2613,0.2697,0.274,0.2834,0.2916,0.2946,0.3056,0.3118,0.3143,0.3178,0.3153,0.3162,0.3153,0.2868,0.2832,0.3071,0.3063,0.3146,0.3147,0.3147,0.3147,0.3147,0,0.2469,0.2475,0.2517,0.2527,0.2546,0.2592,0.2626,0.2727,0.2781,0.2931,0.2965,0.307,0.3135,0.3207,0.3155,0.3146,0.3186,0.2906,0.2822,0.3095,0.3083,0.3075,0.3068,0.2526,0.2521,0.2517,0.2514,0,0.2441,0.2456,0.2469,0.2493,0.2518,0.2552,0.261,0.2652,0.277,0.2847,0.2954,0.3028,0.3103,0.2992,0.3001,0.2954,0.2891,0.2828,0.3184,0.2577,0.252,0.2506,0.2516,0.2478,0.2481,0.2484,0.2486,0.2487,0.2415,0.2416,0.2433,0.2449,0.2473,0.249,0.2495,0.255,0.2617,0.2665,0.282,0.2816,0.2839,0.2728,0.2641,0.2555,0.2758,0.2607,0.2614,0.2627,0.2571,0.2521,0.2465,0.2469,0.2472,0.2474,0.2477,0,0.2362,0.2374,0.2388,0.239,0.2366,0.2423,0.2461,0.2407,0.2414,0.248,0.2526,0.2316,0.2274,0.2289,0.2106,0.2129,0.2053,0.204,0.1892,0.1932,0.1966,0.1871,0.1582,0.1579,0.1576,0.1573,0,0,0.2335,0.2312,0.2315,0.2264,0.2273,0.2201,0.22,0.2131,0.212,0.2042,0.2009,0.215,0.2242,0.1868,0.1829,0.1673,0.1785,0.161,0.2333,0.2199,0.223,0.2307,0.2209,0,0,0,0,0]},{"header":{"parameterUnit":"m.s-1","parameterCategory":2,"la1":30.2991,"la2":30.254,"lo1":-89.0895,"lo2":-89.0444,"dy":0.0017,"dx":0.0017,"nx":28,"ny":28,"refTime":"2025-11-08T03:00:00:Z","depth":"2","parameterNumber":3,"parameterNumberName":"V-component_of_CURRENTS"},"data":[0,0,0,0,0,0,0,0,0,0,0,0,0,0,0,0,0,0,0,0,0,0,0,0,0,0,0,0,0,0,0,0,0,0,0,0,0,0,0,0,0,0,0,0,0,0,0,0,0,0,0,0,0,0,0,0,0,0,0.0072,0.0072,0,0.0041,0.0041,0.0041,0.0013,0.0013,0.0013,0.0012,-0.003,-0.003,-0.0031,0,0,0,0,0,0,0,0,0,0,0,0,0,0.006,0.0061,0.0072,0.0072,0.0072,0.0041,0.0041,0.004,0.0013,0.0013,0.0013,0.0012,-0.0029,-0.003,-0.0031,0,0,0,0,0,0,0,0,0,0,0,0,0,0.005,0.0061,0.0072,0.0055,0.0053,0.0042,0.0041,0.004,0.0013,0.0013,0.0013,0.0012,-0.0029,-0.003,-0.0032,-0.0032,0,0,-0.0036,-0.0036,0,0,0,0,0,0,0,0,0.0051,0.0051,0.0058,0.0056,0.0054,0.0031,0.0021,0.0016,0.0013,0.0028,0.0012,0.0012,-0.0009,-0.0012,-0.0018,-0.0034,-0.0036,-0.0036,-0.0037,-0.0037,-0.0038,0,0,0,0,0,0,0,0.0052,0.0052,0.0059,0.0058,0.0055,0.0032,0.0031,0.002,0.0011,0.0026,0.0025,0.0022,-0.0011,-0.0017,-0.002,-0.0037,-0.0036,-0.0037,-0.0038,-0.0038,-0.0061,-0.0061,0,0,0,0,0,0,0.006,0.0053,0.006,0.0058,0.0052,0.0033,0.0032,0.0039,0.0011,0.0007,0.0023,0.0021,-0.0015,-0.0018,-0.0021,-0.0014,-0.0037,-0.0038,-0.0039,-0.0061,-0.0061,-0.0061,0,0,0,0,0,0,0.006,0.0062,0.0062,0.0055,0.0053,0.0034,0.0042,0.0038,0.0033,0.0009,0.0004,0.0022,-0.0015,-0.0019,-0.0027,-0.0017,-0.0039,-0.004,-0.0062,-0.0061,-0.0061,-0.0007,0,0,0,0,0,0,0.006,0.0062,0.0068,0.0056,0.0054,0.0064,0.0042,0.0038,0.0033,0.0031,0.0007,0.0002,-0.0016,-0.0025,-0.0028,-0.0019,-0.0041,-0.0062,-0.0061,-0.0061,-0.0009,-0.0005,-0.0001,0,0,0,0,0,0.006,0.0076,0.0068,0.0069,0.0064,0.0065,0.0062,0.0046,0.0034,0.0039,0.0019,0.0003,-0.0025,-0.0025,-0.003,-0.002,-0.0062,-0.0062,-0.0061,-0.0011,-0.0006,-0.0001,0,0,0,0,0,0,0.0073,0.0074,0.0066,0.0081,0.0075,0.0061,0.0062,0.005,0.0039,0.0034,0.0008,0.0003,-0.0002,-0.0019,-0.0019,-0.0028,-0.0047,-0.0048,-0.0007,-0.0003,0.0001,0.0017,-0.0042,0,0,0,0,0,0.0079,0.009,0.0084,0.0095,0.0094,0.0078,0.0075,0.0065,0.0053,0.0047,0.003,0.001,-0.0003,-0.0009,-0.0025,-0.0025,-0.005,-0.0024,-0.002,-0.0017,-0.0007,-0.0038,-0.0035,-0.0059,-0.0059,-0.0059,0,0,0.0085,0.0087,0.0093,0.0098,0.009,0.0104,0.0075,0.0076,0.0084,0.0045,0.0048,0.0023,-0.0001,-0.0004,-0.0008,-0.0016,-0.0024,-0.0016,-0.0013,-0.0005,-0.0037,-0.0035,-0.0032,-0.0059,-0.0059,-0.0059,0,0,0.0111,0.0108,0.0128,0.013,0.0127,0.012,0.0123,0.0112,0.0104,0.0102,0.0075,0.0058,0.0039,0.0025,0.0015,0.003,-0.0004,0.0022,0.0058,0.0029,0.0031,0.0032,-0.0,-0.0002,0.0026,0.0026,0.0026,0,0.0117,0.0146,0.0132,0.0153,0.0162,0.0133,0.0159,0.0148,0.0134,0.0134,0.0111,0.0079,0.0055,0.0055,0.0057,0.0041,0.0016,0.0045,0.0035,0.0035,0.0036,0.0003,-0.0,0.0028,0.0028,0.0028,0.0028,0,0.0162,0.0182,0.0194,0.0215,0.022,0.0236,0.0225,0.022,0.0202,0.0194,0.0182,0.014,0.0125,0.0109,0.0088,0.0083,0.0061,0.0042,0.0026,0.0042,0.0005,0.0002,0.0032,0.0031,0.003,0.003,0,0,0.0187,0.0221,0.0225,0.025,0.0256,0.027,0.0277,0.0287,0.0303,0.0265,0.0277,0.0237,0.0209,0.0195,0.0158,0.0128,0.0103,0.0091,0.0088,0.0065,0.0034,0.0013,0.0006,0.0081,0.0081,0.008,0.0006,0,0.0227,0.0286,0.0289,0.0341,0.0373,0.0353,0.037,0.0368,0.0358,0.0359,0.0303,0.0301,0.0244,0.0236,0.0196,0.013,0.0096,0.0125,0.0017,0.0014,-0.0002,0.0003,0.0031,-0.0033,0.0002,0.0002,0.0001,0,0.0274,0.031,0.0371,0.0417,0.0428,0.0449,0.0475,0.049,0.0478,0.0468,0.0442,0.0399,0.0352,0.0297,0.0189,0.0209,0.013,0.0068,0.0064,0.0025,-0.0014,-0.0043,-0.0042,-0.0006,-0.0005,-0.0005,-0.0004,0,0.0312,0.0369,0.0423,0.0439,0.048,0.0497,0.0516,0.0523,0.0556,0.054,0.0551,0.0482,0.0453,0.0342,0.0208,0.02,0.008,0.0053,-0.0043,-0.0046,-0.0051,-0.0053,-0.0024,-0.0024,-0.0024,-0.0023,-0.0023,0,0.0361,0.0404,0.0445,0.0476,0.0544,0.0549,0.0617,0.0619,0.0643,0.0695,0.0614,0.0627,0.0462,0.0371,0.0237,0.0087,0.01,-0.0033,-0.0063,-0.0032,-0.0032,-0.0031,-0.0031,-0.0026,-0.0026,-0.0025,-0.0025,0,0.0398,0.0422,0.0493,0.0545,0.0566,0.0616,0.0693,0.0747,0.0748,0.0806,0.0804,0.0739,0.0619,0.044,0.0264,0.0138,-0.0012,-0.007,-0.0025,-0.0049,-0.0127,-0.0123,-0.018,-0.0181,-0.0182,-0.0183,-0.0184,0,0.0424,0.0463,0.0547,0.0597,0.0624,0.0699,0.076,0.0797,0.0866,0.0884,0.0922,0.082,0.0779,0.0502,0.0251,0.0008,-0.0025,-0.0125,-0.0137,-0.0118,-0.0142,-0.0136,-0.0131,-0.0128,-0.0128,-0.0128,-0.0128,0,0.0476,0.0503,0.0563,0.0667,0.074,0.0838,0.0925,0.0996,0.1043,0.1091,0.1133,0.1097,0.0822,0.0588,0.0239,0.0077,-0.0087,-0.0137,-0.0127,-0.009,-0.0074,-0.0096,-0.0091,-0.013,-0.013,-0.013,-0.013,-0.013,0.0514,0.0567,0.0647,0.0748,0.084,0.0962,0.106,0.1156,0.1273,0.1345,0.1294,0.1238,0.0948,0.0512,0.0213,-0.011,-0.0092,-0.0194,-0.0191,-0.0189,-0.0166,-0.0153,-0.0221,-0.0221,-0.0221,-0.0222,-0.0222,0,0.0569,0.0627,0.0724,0.0849,0.0966,0.1002,0.1165,0.127,0.1418,0.1449,0.1475,0.1206,0.0917,0.0568,0.0097,-0.0171,-0.0188,-0.0261,-0.0218,-0.0214,-0.021,-0.0188,-0.0249,-0.025,-0.0251,-0.0252,0,0,0.0597,0.0696,0.0749,0.0936,0.1027,0.12,0.1304,0.1446,0.1519,0.1577,0.153,0.1424,0.101,0.0667,0.0289,0.0017,-0.0034,-0.0036,0.0018,0.0119,0.0125,-0.0139,-0.0095,0,0,0,0,0]}],[{"header":{"parameterUnit":"m.s-1","parameterCategory":2,"la1":30.2991,"la2":30.254,"lo1":-89.0895,"lo2":-89.0444,"dy":0.0017,"dx":0.0017,"nx":28,"ny":28,"refTime":"2025-11-08T03:00:00:Z","depth":"4","parameterNumber":2,"parameterNumberName":"U-component_of_CURRENTS"},"data":[0,0,0,0,0,0,0,0,0,0,0,0,0,0,0,0,0,0,0,0,0,0,0,0,0,0,0,0,0,0,0,0,0,0,0,0,0,0,0,0,0,0,0,0,0,0,0,0,0,0,0,0,0,0,0,0,0,0,0.1446,0.1446,0,0.1493,0.1494,0.1494,0.1536,0.1536,0.1537,0.1538,0.1593,0.1594,0.1595,0,0,0,0,0,0,0,0,0,0,0,0,0,0.1393,0.1394,0.1446,0.1446,0.1447,0.1493,0.1494,0.1494,0.1536,0.1536,0.1537,0.1538,0.1593,0.1594,0.1595,0,0,0,0,0,0,0,0,0,0,0,0,0,0.1424,0.1394,0.1445,0.1475,0.1478,0.1493,0.1494,0.1494,0.1535,0.1536,0.1537,0.1538,0.1593,0.1594,0.1595,0.1585,0,0,0.16,0.16,0,0,0,0,0,0,0,0,0.1422,0.1426,0.147,0.1473,0.1476,0.1511,0.1496,0.1525,0.1535,0.1512,0.1538,0.1539,0.1567,0.1571,0.1575,0.1587,0.159,0.16,0.16,0.1601,0.1601,0,0,0,0,0,0,0,0.142,0.1424,0.1463,0.147,0.1474,0.1486,0.1492,0.1501,0.1532,0.1514,0.1517,0.1525,0.1569,0.1573,0.1577,0.1591,0.16,0.1601,0.1602,0.1602,0.1703,0.1705,0,0,0,0,0,0,0.1417,0.1422,0.1461,0.1464,0.1453,0.1487,0.1492,0.1497,0.1532,0.1539,0.1524,0.1527,0.1571,0.1575,0.1579,0.1662,0.1601,0.1602,0.1603,0.1701,0.1703,0.1705,0,0,0,0,0,0,0.1415,0.1419,0.1459,0.1446,0.1452,0.1487,0.1492,0.1498,0.1538,0.154,0.1547,0.1563,0.1572,0.1577,0.1622,0.1661,0.1603,0.1604,0.1699,0.1702,0.1704,0.1768,0,0,0,0,0,0,0.1413,0.1419,0.1439,0.1445,0.1453,0.1489,0.1491,0.1498,0.154,0.1545,0.1574,0.1579,0.1573,0.162,0.1624,0.1662,0.1605,0.1696,0.17,0.1703,0.1763,0.1772,0.178,0,0,0,0,0,0.1411,0.1426,0.1439,0.1445,0.1473,0.149,0.1495,0.1521,0.1541,0.1561,0.1589,0.158,0.1645,0.1623,0.1626,0.1665,0.1695,0.1699,0.1703,0.176,0.1771,0.178,0,0,0,0,0,0,0.1415,0.1432,0.1446,0.1468,0.1489,0.1498,0.1525,0.1542,0.1579,0.1598,0.1599,0.1605,0.1661,0.1655,0.1631,0.1706,0.167,0.1675,0.1712,0.1722,0.1731,0.1734,0.1606,0,0,0,0,0,0.1424,0.1443,0.1459,0.1481,0.1495,0.1518,0.1537,0.1556,0.158,0.16,0.1621,0.1648,0.1674,0.1693,0.1711,0.1749,0.1748,0.1778,0.1787,0.1794,0.1801,0.1838,0.185,0.1719,0.1719,0.1719,0,0,0.1433,0.1446,0.1459,0.1485,0.1506,0.153,0.1533,0.1571,0.1602,0.1599,0.1661,0.168,0.1691,0.1737,0.1762,0.1742,0.1831,0.1799,0.1805,0.1808,0.1844,0.1856,0.1867,0.1722,0.1721,0.1721,0,0,0.1447,0.1473,0.1492,0.1513,0.1551,0.1565,0.1584,0.1617,0.1647,0.1699,0.1709,0.1755,0.1792,0.1808,0.1819,0.1884,0.1875,0.1898,0.1944,0.1981,0.1992,0.2001,0.2015,0.2025,0.1902,0.1902,0.1902,0,0.1463,0.1483,0.1502,0.1525,0.1551,0.1584,0.1614,0.1644,0.1692,0.1724,0.1732,0.1816,0.1824,0.1879,0.1904,0.1904,0.1918,0.1902,0.1991,0.2001,0.2009,0.2021,0.2032,0.1906,0.1905,0.1905,0.1904,0,0.1478,0.1511,0.1527,0.1567,0.1597,0.163,0.1669,0.1716,0.1762,0.1793,0.1874,0.1895,0.1945,0.1958,0.1951,0.2023,0.2011,0.1997,0.1962,0.2026,0.2035,0.2045,0.1911,0.1909,0.1908,0.1907,0,0,0.1467,0.1526,0.1537,0.1564,0.1626,0.1646,0.1712,0.1771,0.1827,0.1886,0.1954,0.2007,0.2037,0.2051,0.206,0.209,0.2158,0.2078,0.2078,0.2086,0.2236,0.209,0.2086,0.2167,0.217,0.2171,0.2216,0,0.148,0.1524,0.1557,0.1615,0.164,0.1697,0.1752,0.1817,0.1882,0.1956,0.2004,0.2074,0.2067,0.2107,0.2141,0.2158,0.2189,0.2147,0.2178,0.2178,0.2036,0.2094,0.2178,0.2223,0.2225,0.2227,0.2228,0,0.1478,0.1511,0.1565,0.1638,0.1658,0.1707,0.1808,0.1864,0.1969,0.2025,0.2109,0.2148,0.2221,0.2199,0.2272,0.2252,0.2256,0.2257,0.2258,0.2105,0.205,0.2148,0.2245,0.2244,0.2243,0.2241,0.224,0,0.1441,0.1515,0.156,0.1585,0.1674,0.1727,0.1789,0.1895,0.1957,0.2084,0.2145,0.2232,0.2291,0.2321,0.2335,0.232,0.2393,0.2365,0.2235,0.2224,0.2313,0.2302,0.2412,0.2412,0.2412,0.2412,0.2412,0,0.1419,0.1459,0.1555,0.1577,0.1648,0.1723,0.1818,0.1895,0.2015,0.2087,0.2188,0.2245,0.2329,0.2374,0.2369,0.233,0.2426,0.225,0.223,0.2338,0.233,0.2319,0.2308,0.2413,0.2413,0.2413,0.2413,0,0.1364,0.1426,0.1483,0.159,0.1631,0.1687,0.1826,0.1886,0.2018,0.2115,0.2161,0.2285,0.234,0.2388,0.2435,0.236,0.2342,0.2302,0.2417,0.2401,0.2139,0.2131,0.2158,0.2153,0.2149,0.2146,0.2143,0,0.1334,0.1359,0.1479,0.1517,0.1574,0.1672,0.1733,0.1876,0.1935,0.2111,0.2135,0.2251,0.2309,0.2256,0.2321,0.2305,0.2273,0.2246,0.2186,0.2137,0.2116,0.2114,0.2111,0.2136,0.2135,0.2134,0.2133,0,0.1274,0.1334,0.138,0.146,0.1532,0.1596,0.1696,0.1728,0.1881,0.2019,0.2057,0.2084,0.214,0.2161,0.2169,0.2152,0.2253,0.2204,0.2211,0.2154,0.2112,0.2094,0.2096,0.212,0.2122,0.2123,0.2124,0,0.1236,0.1251,0.1322,0.1379,0.146,0.1486,0.1556,0.1615,0.169,0.1876,0.1883,0.2,0.2117,0.2082,0.2088,0.2064,0.2025,0.1942,0.1962,0.1979,0.1897,0.1816,0.1722,0,0,0,0,0,0.1184,0.1184,0.1231,0.1275,0.1349,0.1394,0.1508,0.1578,0.1725,0.1703,0.1788,0.1827,0.1848,0.1909,0.1845,0.2005,0.2031,0.1922,0.1947,0.2043,0.2059,0.1979,0,0,0,0,0,0,0.1144,0.1181,0.1191,0.1176,0.1186,0.1247,0.1312,0.1413,0.1407,0.1566,0.1585,0.1706,0.1752,0.1858,0.1806,0.1823,0.1797,0.2,0.1995,0.2034,0.2049,0.2062,0.1985,0,0,0,0,0]},{"header":{"parameterUnit":"m.s-1","parameterCategory":2,"la1":30.2991,"la2":30.254,"lo1":-89.0895,"lo2":-89.0444,"dy":0.0017,"dx":0.0017,"nx":28,"ny":28,"refTime":"2025-11-08T03:00:00:Z","depth":"4","parameterNumber":3,"parameterNumberName":"V-component_of_CURRENTS"},"data":[0,0,0,0,0,0,0,0,0,0,0,0,0,0,0,0,0,0,0,0,0,0,0,0,0,0,0,0,0,0,0,0,0,0,0,0,0,0,0,0,0,0,0,0,0,0,0,0,0,0,0,0,0,0,0,0,0,0,0.025,0.025,0,0.0234,0.0234,0.0234,0.0222,0.0222,0.0221,0.0221,0.02,0.02,0.0199,0,0,0,0,0,0,0,0,0,0,0,0,0,0.0237,0.0237,0.025,0.025,0.025,0.0234,0.0234,0.0234,0.0222,0.0222,0.0221,0.0221,0.02,0.02,0.0199,0,0,0,0,0,0,0,0,0,0,0,0,0,0.0234,0.0237,0.025,0.0242,0.0241,0.0234,0.0234,0.0234,0.0222,0.0222,0.0221,0.0221,0.0201,0.02,0.0199,0.0198,0,0,0.0197,0.0197,0,0,0,0,0,0,0,0,0.0234,0.0234,0.0243,0.0243,0.0242,0.023,0.0221,0.0221,0.0222,0.0229,0.0221,0.0221,0.021,0.0208,0.0206,0.0197,0.0196,0.0197,0.0197,0.0196,0.0196,0,0,0,0,0,0,0,0.0234,0.0235,0.0244,0.0243,0.0242,0.0227,0.0227,0.0221,0.022,0.0228,0.0227,0.0226,0.0209,0.0206,0.0205,0.0196,0.0197,0.0196,0.0196,0.0196,0.0179,0.0179,0,0,0,0,0,0,0.0238,0.0235,0.0244,0.0243,0.0237,0.0228,0.0228,0.0234,0.022,0.0218,0.0226,0.0225,0.0208,0.0206,0.0204,0.021,0.0196,0.0196,0.0195,0.0179,0.0179,0.0179,0,0,0,0,0,0,0.0238,0.024,0.0245,0.0238,0.0238,0.0229,0.0235,0.0233,0.0233,0.0219,0.0216,0.0228,0.0207,0.0205,0.0202,0.0209,0.0195,0.0195,0.0179,0.0179,0.0179,0.0216,0,0,0,0,0,0,0.0238,0.024,0.0246,0.0239,0.0238,0.0248,0.0235,0.0233,0.0232,0.0232,0.022,0.0217,0.0207,0.0204,0.0202,0.0207,0.0194,0.0179,0.0179,0.0179,0.0215,0.0217,0.0219,0,0,0,0,0,0.0238,0.025,0.0247,0.0248,0.0248,0.0248,0.0247,0.0239,0.0233,0.0237,0.0227,0.0218,0.0202,0.0203,0.0201,0.0207,0.0179,0.0179,0.0179,0.0214,0.0217,0.0219,0,0,0,0,0,0,0.0247,0.025,0.0246,0.0259,0.0256,0.0246,0.0249,0.0242,0.0238,0.0236,0.0221,0.0219,0.0217,0.0205,0.0207,0.02,0.0187,0.0187,0.0215,0.0217,0.022,0.0231,0.0193,0,0,0,0,0,0.0253,0.0263,0.0259,0.0269,0.0269,0.0259,0.0258,0.0253,0.0246,0.0244,0.0235,0.0223,0.0215,0.0212,0.0202,0.0202,0.0179,0.0201,0.0203,0.0206,0.0212,0.0181,0.0181,0.0179,0.0179,0.0179,0,0,0.0259,0.0261,0.0267,0.0271,0.0267,0.0277,0.0258,0.026,0.0267,0.0243,0.0249,0.0232,0.0216,0.0214,0.0212,0.0206,0.0193,0.0206,0.0208,0.0213,0.0181,0.0181,0.0181,0.0179,0.0179,0.0179,0,0,0.0277,0.0278,0.0294,0.0295,0.0294,0.029,0.0293,0.0286,0.0282,0.0283,0.0265,0.0253,0.0243,0.0232,0.0225,0.0233,0.0206,0.0227,0.0251,0.022,0.0221,0.022,0.0188,0.0185,0.0229,0.0229,0.0229,0,0.0284,0.0306,0.0297,0.0312,0.0319,0.0299,0.0318,0.0311,0.0304,0.0305,0.029,0.0268,0.0252,0.0249,0.025,0.0239,0.0216,0.0244,0.0224,0.0223,0.0223,0.019,0.0186,0.0231,0.0231,0.0231,0.0231,0,0.0315,0.0332,0.0341,0.0356,0.0361,0.0373,0.0365,0.0363,0.0353,0.0347,0.0338,0.0308,0.0297,0.0284,0.0271,0.026,0.0243,0.0231,0.022,0.0225,0.019,0.0185,0.0234,0.0233,0.0233,0.0232,0,0,0.0332,0.0359,0.0363,0.0383,0.0388,0.0398,0.0405,0.0412,0.0424,0.0396,0.0403,0.0374,0.0353,0.0343,0.0316,0.0286,0.0256,0.026,0.0257,0.0233,0.0185,0.0171,0.0164,0.0239,0.0238,0.0238,0.0162,0,0.0361,0.0403,0.0407,0.0448,0.047,0.0459,0.0472,0.0472,0.0465,0.0464,0.0419,0.0418,0.0377,0.0372,0.0334,0.028,0.0245,0.0277,0.018,0.0177,0.0167,0.0159,0.0236,0.0158,0.0157,0.0156,0.0155,0,0.0392,0.0419,0.0466,0.0503,0.0512,0.0531,0.0553,0.0564,0.0552,0.0545,0.0522,0.0489,0.0445,0.0406,0.0308,0.033,0.0264,0.0212,0.0207,0.018,0.0153,0.0151,0.0146,0.0146,0.0147,0.0148,0.0148,0,0.0415,0.0461,0.0503,0.0516,0.055,0.0568,0.0586,0.0591,0.0615,0.0599,0.0606,0.0544,0.0518,0.0424,0.0312,0.0311,0.0194,0.0179,0.01,0.0098,0.0118,0.0119,0.0106,0.0106,0.0107,0.0107,0.0107,0,0.0445,0.0481,0.0521,0.0545,0.06,0.0608,0.0664,0.0665,0.0682,0.0715,0.0655,0.0651,0.0521,0.0437,0.0327,0.0198,0.0203,0.0103,0.0078,0.0134,0.0138,0.0114,0.0116,0.0104,0.0105,0.0105,0.0106,0,0.0464,0.0489,0.0545,0.0594,0.0615,0.0655,0.0725,0.0765,0.0768,0.0802,0.0799,0.0732,0.0618,0.0476,0.0321,0.0229,0.0101,0.0052,0.0122,0.0103,0.002,0.0025,-0.004,-0.0041,-0.0042,-0.0043,-0.0043,0,0.0478,0.0509,0.0585,0.0627,0.0654,0.072,0.0771,0.0805,0.0848,0.085,0.0863,0.077,0.0702,0.0473,0.032,0.0103,0.0071,0.0006,0.001,0.0023,0.0005,0.0011,0.0017,-0.0045,-0.0045,-0.0046,-0.0046,0,0.0507,0.0535,0.0583,0.067,0.0734,0.0814,0.0882,0.0917,0.095,0.0952,0.0914,0.0793,0.0662,0.0476,0.0305,0.015,0.0049,-0.0005,-0.0004,-0.0,0.0016,0.0,0.0007,-0.0049,-0.0049,-0.0048,-0.0048,0,0.0529,0.0567,0.0634,0.071,0.0796,0.0876,0.0914,0.0955,0.0992,0.0979,0.0964,0.0817,0.0734,0.0501,0.0345,0.0187,0.0146,0.0099,0.0094,0.0096,0.0153,0.0195,0.0163,0,0,0,0,0,0.055,0.0596,0.067,0.0756,0.0844,0.0898,0.0975,0.1005,0.1028,0.1007,0.0986,0.0858,0.0624,0.0528,0.0366,0.0319,0.0116,0.0125,0.0059,-0.0068,-0.0064,-0.0021,0,0,0,0,0,0,0.0563,0.0633,0.0671,0.0783,0.0849,0.0953,0.1006,0.1024,0.1009,0.0999,0.0877,0.0817,0.059,0.0713,0.0363,0.0316,0.0252,0.0017,0.0013,-0.007,-0.0066,-0.0063,-0.0018,0,0,0,0,0]}]]